Printer-friendly version

IAU Minor Planet Center

Minor Planet Center

MPEC 2002-S44 : 2000 OL67, 2000 OP67, 2001 QJ298, 2001 QQ322, 2001 RX143

The following Minor Planet Electronic Circular may be linked-to from your own Web pages, but must not otherwise be redistributed electronically.


Read MPEC 2002-S43 Read MPEC 2002-S45


M.P.E.C. 2002-S44                                Issued 2002 Sept. 24, 23:21 UT

     The Minor Planet Electronic Circulars contain information on unusual
         minor planets and routine data on comets.  They are published
   on behalf of Commission 20 of the International Astronomical Union by the
          Minor Planet Center, Smithsonian Astrophysical Observatory,
                          Cambridge, MA 02138, U.S.A.

             Prepared using the Tamkin Foundation Computer Network

                              MPC@CFA.HARVARD.EDU
          URL http://cfa-www.harvard.edu/iau/mpc.html  ISSN 1523-6714

           2000 OL67, 2000 OP67, 2001 QJ298, 2001 QQ322, 2001 RX143

       Revision to MPEC 2000-T41, 2000-T42, 2001-T54, 2001-V11, 2001-V12

Observations:
     K00O67L  C2001 08 21.18017 22 35 31.61 -08 19 52.9          21.8 R      807
     K00O67L  C2001 08 21.25576 22 35 31.26 -08 19 54.7                      807
     K00O67L  C2002 08 11.33940 22 41 18.14 -07 42 34.0          22.2 R      807
     K00O67L  C2002 08 12.30468 22 41 14.14 -07 42 56.8                      807
     K00O67L  C2002 08 12.38292 22 41 13.80 -07 42 58.6                      807
     K00O67P  C2001 08 19.14746 21 47 59.74 -12 47 04.8          21.8 R      807
     K00O67P  C2001 08 19.22785 21 47 59.35 -12 47 07.0                      807
     K00O67P  C2002 08 10.25502 21 54 50.22 -12 12 16.5          21.8 R      807
     K00O67P  C2002 08 10.36021 21 54 49.68 -12 12 19.5                      807
     K01QT8J  C2000 07 31.28957 21 52 56.76 -12 10 37.3          22.0 R      807
     K01QT8J  C2000 07 31.36788 21 52 56.41 -12 10 38.6                      807
     K01QT8J  C2002 08 09.19413 22 01 39.22 -11 29 37.3          21.5 R      807
     K01QT8J  C2002 08 10.27184 22 01 34.68 -11 30 01.9                      807
     K01QT8J  C2002 08 10.37531 22 01 34.24 -11 30 04.4                      807
     K01QW2Q  C2002 08 09.39053 23 14 37.37 -09 15 43.7          21.6 R      807
     K01QW2Q  C2002 08 10.29681 23 14 34.11 -09 16 07.2                      807
     K01QW2Q  C2002 08 10.39781 23 14 33.71 -09 16 09.5                      807
     K01RE3X  C2002 08 11.38957 01 01 50.85 +04 21 17.8          21.6 R      807
     K01RE3X  C2002 08 12.33198 01 01 48.72 +04 21 06.1                      807
     K01RE3X  C2002 08 12.40948 01 01 48.53 +04 21 05.2                      807

Observer details:
807 Cerro Tololo Observatory, La Serena.  Observers M. W. Buie, S. D. Kern.
    Measurers M. W. Buie, S. D. Kern, R. L. Millis, L. H. Wasserman, E. Chiang,
    J. L. Elliot, K. B. Clancy, D. E. Trilling.  4-m reflector + CCD.

Orbital elements:
2000 OL67
Epoch 2002 Nov. 22.0 TT = JDT 2452600.5                 MPC
M  53.69033              (2000.0)            P               Q
n   0.00327507     Peri.  311.84663     +0.08048881     +0.99653321
a  44.9078387      Node   322.75435     -0.90389021     +0.06407216
e   0.1058930      Incl.    1.99318     -0.42012384     +0.05306907
P 301              H    6.6           G   0.15           U   4
Residuals in seconds of arc
K007T  807  0.0   0.2+    K009J  695  0.0   0.1-    K028B  807  0.0   0.3-
K007T  807  0.1-  0.0     K009J  695  0.0   0.2+    K028C  807  0.0   0.2+
K008P  807  0.1+  0.0     K018L  807  0.1+  0.2-    K028C  807  0.1-  0.3+
K008P  807  0.1-  0.3-    K018L  807  0.0   0.0

2000 OP67
Epoch 2002 Nov. 22.0 TT = JDT 2452600.5                 MPC
M  48.66362              (2000.0)            P               Q
n   0.00343673     Peri.   76.75912     -0.18269260     +0.98316989
a  43.4883103      Node   182.71447     -0.90704226     -0.16879021
e   0.1873410      Incl.    0.75134     -0.37933857     -0.06990592
P 287              H    6.8           G   0.15           U   3
Residuals in seconds of arc
K007V  807  0.1+  0.1+    K008P  807  0.1-  0.2-    K028A  807  0.2+  0.2+
K007V  807  0.1-  0.0     K018J  807  0.1-  0.0     K028A  807  0.2-  0.1-
K008P  807  0.1+  0.1+    K018J  807  0.1+  0.1-

2001 QJ298
Epoch 2002 Nov. 22.0 TT = JDT 2452600.5                 MPC
M 223.61695              (2000.0)            P               Q
n   0.00339109     Peri.  305.19697     -0.30770715     -0.95141563
a  43.8776182      Node   162.71382     +0.88472338     -0.29041507
e   0.0395501      Incl.    2.15288     +0.35011549     -0.10231024
P 291              H    5.6           G   0.15           U   5
Residuals in seconds of arc
K007V  807  0.2+  0.2-    K018L  807  0.1+  0.1-    K0289  807  0.0   0.1-
K007V  807  0.2-  0.2+    K019C  695  0.1+  0.0     K028A  807  0.0   0.2+
K018L  807  0.1-  0.1+    K019C  695  0.0   0.2-    K028A  807  0.1+  0.1+

2001 QQ322
Epoch 2002 Nov. 22.0 TT = JDT 2452600.5                 MPC
M  19.98674              (2000.0)            P               Q
n   0.00339594     Peri.  248.84076     +0.82127569     +0.56656581
a  43.8358315      Node    76.58988     -0.49450012     +0.76558671
e   0.0061475      Incl.    3.95853     -0.28456259     +0.30476250
P 290              H    5.9           G   0.15           U   4
Residuals in seconds of arc
K018L  807  0.0   0.1-    K01AJ  688  0.1-  0.4-    K0289  807  0.1-  0.1-
K018L  807  0.0   0.1-    K01AJ  695  0.0   0.1+    K028A  807  0.2+  0.2-
K01AJ  695  0.4+  0.1-    K01B3  304  0.2-  0.4+    K028A  807  0.1-  0.1+
K01AJ  688 (1.9+  0.3-)   K01B3  304  0.2-  0.3+

2001 RX143
Epoch 2002 Nov. 22.0 TT = JDT 2452600.5                 MPC
M  82.95815              (2000.0)            P               Q
n   0.00403829     Peri.  238.99901     -0.19798170     +0.97333219
a  39.0544689      Node    20.56555     -0.74861809     -0.07383223
e   0.2859372      Incl.   19.26116     -0.63275129     -0.21719405
P 244              H    5.4           G   0.15           U   6
Residuals in seconds of arc
K019C  695  0.1-  0.1-    K01AK  695  0.1-  0.1+    K028C  807  0.0   0.1-
K019C  695  0.0   0.2-    K01B3  304  0.2-  0.1+    K028C  807  0.1-  0.0
K01AJ  695  0.0   0.1+    K01B3  304  0.2-  0.2-
K01AJ  695  0.1+  0.1-    K028B  807  0.1-  0.0

Ephemerides:
2000 OL67                a,e,i = 44.91, 0.11, 2                  q = 40.152
Date    TT    R. A. (2000) Decl.     Delta      r     Elong.  Phase     V
2002 09 23    22 38.21   -08 00.7   41.501   42.436   158.3     0.5    22.9
2002 10 03    22 37.57   -08 04.6   41.583   42.438   148.3     0.7    23.0
2002 10 13    22 37.00   -08 07.9   41.690   42.441   138.3     0.9    23.0
2002 10 23    22 36.54   -08 10.7   41.819   42.443   128.3     1.1    23.0
2002 11 02    22 36.21   -08 12.7   41.967   42.445   118.2     1.2    23.0
2002 11 12    22 36.01   -08 14.0   42.129   42.448   108.1     1.3    23.0
2002 11 22    22 35.96   -08 14.3   42.301   42.450    98.0     1.3    23.1
2002 12 02    22 36.06   -08 13.8   42.477   42.453    87.9     1.3    23.1
2002 12 12    22 36.32   -08 12.3   42.651   42.455    77.9     1.3    23.1
2002 12 22    22 36.72   -08 10.0   42.820   42.458    67.8     1.2    23.1
2003 01 01    22 37.26   -08 06.9   42.977   42.460    57.7     1.1    23.1
2003 01 11    22 37.92   -08 03.0   43.118   42.463    47.7     1.0    23.1
2003 01 21    22 38.69   -07 58.4   43.239   42.465    37.8     0.8    23.1

2000 OP67                a,e,i = 43.49, 0.19, 1                  q = 35.341
Date    TT    R. A. (2000) Decl.     Delta      r     Elong.  Phase     V
2002 09 23    21 51.46   -12 30.3   38.276   39.112   146.0     0.8    22.8
2002 10 03    21 50.87   -12 33.5   38.390   39.117   136.0     1.0    22.8
2002 10 13    21 50.40   -12 36.1   38.526   39.121   126.0     1.2    22.9
2002 10 23    21 50.07   -12 38.0   38.679   39.126   116.0     1.3    22.9
2002 11 02    21 49.90   -12 39.0   38.845   39.130   106.0     1.4    22.9
2002 11 12    21 49.89   -12 39.2   39.020   39.135    96.0     1.4    22.9
2002 11 22    21 50.05   -12 38.5   39.197   39.140    85.9     1.4    22.9
2002 12 02    21 50.38   -12 36.9   39.373   39.144    75.9     1.4    22.9
2002 12 12    21 50.87   -12 34.5   39.541   39.149    65.9     1.3    22.9
2002 12 22    21 51.51   -12 31.3   39.697   39.153    55.9     1.2    22.9
2003 01 01    21 52.29   -12 27.4   39.836   39.158    45.9     1.0    22.9
2003 01 11    21 53.18   -12 22.8   39.955   39.163    35.9     0.8    22.9

2001 QJ298               a,e,i = 43.88, 0.04, 2                  q = 42.142
Date    TT    R. A. (2000) Decl.     Delta      r     Elong.  Phase     V
2002 09 23    21 58.59   -11 46.6   44.316   45.169   147.9     0.7    22.2
2002 10 03    21 58.05   -11 49.7   44.421   45.169   137.9     0.9    22.3
2002 10 13    21 57.61   -11 52.2   44.548   45.168   127.9     1.0    22.3
2002 10 23    21 57.29   -11 54.1   44.693   45.167   117.9     1.1    22.3
2002 11 02    21 57.09   -11 55.3   44.852   45.167   107.9     1.2    22.3
2002 11 12    21 57.04   -11 55.8   45.020   45.166    97.9     1.2    22.3
2002 11 22    21 57.14   -11 55.5   45.192   45.165    87.8     1.3    22.3
2002 12 02    21 57.38   -11 54.4   45.364   45.165    77.7     1.2    22.3
2002 12 12    21 57.77   -11 52.5   45.529   45.164    67.7     1.2    22.3
2002 12 22    21 58.28   -11 50.0   45.682   45.163    57.6     1.1    22.3
2003 01 01    21 58.92   -11 46.7   45.820   45.163    47.6     0.9    22.3
2003 01 11    21 59.66   -11 42.9   45.937   45.162    37.6     0.8    22.3

